Meteo Giornale » Osservazioni meteo Italia » Trieste

ore: 01:55 - Osservazioni Meteo Trieste
Lat. 45° 39' N Lon. 13° 45' E Alt. 8 metri s.l.m.

sereno Europe/Rome

9 °C

Sereno

Temp. 24 Ore

8 °C

13 °C

Nord-Est

11.1 Km/h

Dew point 0 °C

Umidità 53 %

Visibilità  10 Km

Il sole sorge alle ore 07:09

Il sole tramonta alle ore 16:31

Data e Ora Cielo e Fenomeni T °C DP °C Um. % Pres. hPa Vis. km Vento km/h
Oggi h: 01:55 sereno Sereno 9 0 53 1015 10 NE 11.1
Oggi h: 00:55 sereno Sereno 8 1 61 1015 10 NE 11.1
Ieri h: 23:55 sereno Sereno 8 1 61 1016 10 E/NE 18.5
Ieri h: 22:55 sereno Sereno 8 1 61 1016 10 E/NE 9.3
Ieri h: 21:55 sereno Sereno 9 2 61 1016 10 N/NE 14.8
Ieri h: 20:55 sereno Sereno 9 2 61 1017 10 E/NE 9.3
Ieri h: 19:55 sereno Sereno 9 2 61 1016 10 N 0
Ieri h: 18:55 sereno Sereno 9 2 61 1016 10 E/NE 7.4
Ieri h: 17:55 sereno Sereno 10 2 57 1016 10 E/NE 11.1
Ieri h: 16:55 sereno Sereno 10 2 57 1016 10 NE 16.7
Ieri h: 15:55 sereno Sereno 11 2 53 1016 10 NE 20.3
Ieri h: 14:55 sereno Sereno 12 3 54 1016 10 NE 25.9
Ieri h: 13:55 sereno Sereno 13 3 50 1016 10 NE 24
Ieri h: 12:55 sereno Sereno 13 3 50 1017 10 NE 25.9
Ieri h: 11:55 sereno Sereno 12 3 54 1017 10 N/NE 18.5
Ieri h: 10:55 sereno Sereno 12 3 54 1018 10 NE 22.2
Ieri h: 09:55 sereno Sereno 11 3 57 1017 10 NE 29.6
Ieri h: 06:55 sereno Sereno 9 2 61 1017 10 NE 35.2
Ieri h: 05:55 sereno Sereno 9 2 61 1017 10 N/NE 27.8
Ieri h: 04:55 sereno Sereno 10 3 61 1017 10 NE 31.5
Ieri h: 03:55 sereno Sereno 10 3 61 1016 10 NE 37